EW7063 Weather Reports


time (UTC)temp
C
wind
direction
speed
KPH
gust
KPH
rain 1hr
cm
rain 24hr
cm
rain mn
cm
humidity
%
barometer
mb
20260508231149 14 199 3.2 8.0 0.00 0.00 0.00 70 1008.5
20260508230922 14 196 3.2 8.0 0.00 0.00 0.00 71 1008.5
20260508230151 15 225 3.2 6.4 0.00 0.00 0.00 73 1008.5
20260508225649 15 249 1.6 4.8 0.00 0.00 0.00 73 1008.6
20260508225150 15 250 1.6 4.8 0.00 0.00 0.00 70 1008.6
20260508224651 15 251 0.0 3.2 0.00 0.00 0.00 69 1008.5
20260508224150 15 252 0.0 1.6 0.00 0.00 0.00 69 1008.5
20260508223650 15 252 0.0 3.2 0.00 0.00 0.00 68 1008.5
20260508223148 15 252 0.0 6.4 0.00 0.00 0.00 67 1008.5
20260508222920 16 251 1.6 6.4 0.00 0.00 0.00 67 1008.6
20260508222150 16 251 1.6 6.4 0.00 0.00 0.00 65 1008.6
20260508221647 16 252 1.6 9.7 0.00 0.00 0.00 68 1008.6
20260508221143 16 242 1.6 9.7 0.00 0.00 0.00 66 1008.6
20260508220643 16 247 3.2 8.0 0.00 0.00 0.00 64 1008.7
20260508220141 16 269 3.2 8.0 0.00 0.00 0.00 65 1008.6
20260508215641 16 282 3.2 9.7 0.00 0.00 0.00 62 1008.5
20260508215411 16 254 3.2 9.7 0.00 0.00 0.00 63 1008.5
20260508214638 16 275 3.2 9.7 0.00 0.00 0.00 61 1008.6
20260508214411 16 287 3.2 12.9 0.00 0.00 0.00 62 1008.5
20260508213631 16 257 4.8 12.9 0.00 0.00 0.00 59 1008.5
20260508213131 16 232 4.8 17.7 0.00 0.00 0.00 59 1008.5
20260508212633 16 234 4.8 17.7 0.00 0.00 0.00 57 1008.5
20260508212131 16 242 4.8 14.5 0.00 0.00 0.00 56 1008.6
20260508211627 16 190 4.8 14.5 0.00 0.00 0.00 55 1008.7
20260508211127 16 188 6.4 14.5 0.00 0.00 0.00 56 1008.7
20260508210623 16 254 6.4 16.1 0.00 0.00 0.00 56 1008.7
20260508210123 16 242 8.0 17.7 0.00 0.00 0.00 54 1008.8
20260508205853 17 320 8.0 17.7 0.00 0.00 0.00 55 1008.8
20260508205126 17 251 8.0 24.1 0.00 0.00 0.00 54 1008.9
20260508205122 17 275 8.0 24.1 0.00 0.00 0.00 55 1008.8
20260508204121 17 252 6.4 22.5 0.00 0.00 0.00 54 1008.9
20260508203619 17 237 8.0 20.9 0.00 0.00 0.00 54 1008.9
20260508203124 17 281 8.0 27.4 0.00 0.00 0.00 56 1009.1
20260508203119 17 242 8.0 25.7 0.00 0.00 0.00 53 1009.0
20260508202120 17 232 8.0 27.4 0.00 0.00 0.00 51 1009.1
20260508201619 17 246 8.0 17.7 0.00 0.00 0.00 53 1009.2
20260508201119 17 252 8.0 25.7 0.00 0.00 0.00 52 1009.3
20260508200621 17 290 8.0 25.7 0.00 0.00 0.00 52 1009.3
20260508200115 17 238 9.7 24.1 0.00 0.00 0.00 51 1009.3
20260508195614 18 285 9.7 25.7 0.00 0.00 0.00 51 1009.3
20260508195113 18 262 8.0 25.7 0.00 0.00 0.00 51 1009.3
20260508194613 18 238 8.0 29.0 0.00 0.00 0.00 52 1009.4
20260508194113 18 252 9.7 29.0 0.00 0.00 0.00 53 1009.4
20260508193613 18 261 9.7 25.7 0.00 0.00 0.00 50 1009.4
20260508193114 18 207 8.0 25.7 0.00 0.00 0.00 54 1009.5
20260508192612 18 292 6.4 19.3 0.00 0.00 0.00 53 1009.5
20260508192109 18 209 6.4 17.7 0.00 0.00 0.00 53 1009.7
20260508191608 18 355 8.0 17.7 0.00 0.00 0.00 51 1009.8
20260508191109 18 240 8.0 25.7 0.00 0.00 0.00 53 1009.9
20260508190607 18 240 8.0 25.7 0.00 0.00 0.00 53 1009.9
20260508190108 18 229 9.7 25.7 0.00 0.00 0.00 52 1009.9
20260508185606 18 297 8.0 25.7 0.00 0.00 0.00 53 1010.0
20260508185103 18 242 9.7 27.4 0.00 0.00 0.00 55 1010.0
20260508184600 19 249 11.3 27.4 0.00 0.00 0.00 52 1010.1
20260508184102 19 263 11.3 24.1 0.00 0.00 0.00 56 1010.1
20260508183601 18 255 9.7 24.1 0.00 0.00 0.00 58 1010.1
20260508183335 18 145 8.0 22.5 0.00 0.00 0.00 57 1010.1
20260508182559 18 198 8.0 20.9 0.00 0.00 0.00 52 1010.2
20260508182328 18 185 8.0 22.5 0.00 0.00 0.00 54 1010.3
20260508181557 18 251 8.0 22.5 0.00 0.00 0.00 57 1010.4
20260508181057 18 207 9.7 22.5 0.00 0.00 0.00 54 1010.4
20260508180557 18 252 9.7 25.7 0.00 0.00 0.00 52 1010.4
20260508180330 19 237 8.0 25.7 0.00 0.00 0.00 49 1010.5
20260508175558 19 250 8.0 24.1 0.00 0.00 0.00 51 1010.5
20260508175324 20 252 8.0 24.1 0.00 0.00 0.00 51 1010.5
20260508174550 20 263 9.7 22.5 0.00 0.00 0.00 55 1010.6
20260508174052 20 270 9.7 27.4 0.00 0.00 0.00 53 1010.8
20260508173551 20 249 9.7 27.4 0.00 0.00 0.00 52 1010.7
20260508173052 20 260 9.7 29.0 0.00 0.00 0.00 52 1010.9
20260508172554 20 320 9.7 29.0 0.00 0.00 0.00 55 1011.0
20260508172549 20 257 8.0 25.7 0.00 0.00 0.00 53 1011.0
20260508171819 19 195 8.0 29.0 0.00 0.00 0.00 55 1011.2
20260508171701 19 219 9.7 29.0 0.00 0.00 0.00 57 1011.3
20260508170544 18 239 6.4 25.7 0.00 0.00 0.00 57 1011.4
20260508170050 18 256 9.7 19.3 0.00 0.00 0.00 56 1011.7
20260508170045 18 198 8.0 22.5 0.00 0.00 0.00 59 1011.7
20260508165037 18 201 8.0 17.7 0.00 0.00 0.00 59 1011.9
20260508164536 17 234 6.4 16.1 0.00 0.00 0.00 55 1011.9
20260508164303 17 248 6.4 16.1 0.00 0.00 0.00 59 1012.0
20260508163531 17 213 6.4 22.5 0.00 0.00 0.00 61 1012.0
20260508163033 17 261 6.4 22.5 0.00 0.00 0.00 59 1012.0
20260508162529 17 254 6.4 19.3 0.00 0.00 0.00 57 1012.1
20260508162029 17 179 6.4 19.3 0.00 0.00 0.00 57 1012.1
20260508161530 17 201 8.0 25.7 0.00 0.00 0.00 58 1012.1
20260508161026 17 192 9.7 25.7 0.00 0.00 0.00 57 1012.2
20260508160525 18 182 8.0 20.9 0.00 0.00 0.00 55 1012.2
20260508160024 17 255 8.0 27.4 0.00 0.00 0.00 56 1012.2
20260508155522 17 270 9.7 27.4 0.00 0.00 0.00 57 1012.2
20260508155020 17 15 9.7 20.9 0.00 0.00 0.00 58 1012.3
20260508154522 17 212 8.0 22.5 0.00 0.00 0.00 63 1012.3
20260508154021 16 245 8.0 22.5 0.00 0.00 0.00 60 1012.3
20260508153519 16 238 9.7 22.5 0.00 0.00 0.00 59 1012.4
20260508153020 16 269 9.7 22.5 0.00 0.00 0.00 56 1012.4
20260508152514 16 232 9.7 25.7 0.00 0.00 0.00 59 1012.4
20260508152012 16 14 9.7 25.7 0.00 0.00 0.00 57 1012.5
20260508151513 16 263 8.0 20.9 0.00 0.00 0.00 58 1012.4
20260508151012 15 300 6.4 17.7 0.00 0.00 0.00 60 1012.3
20260508150513 15 259 6.4 14.5 0.00 0.00 0.00 62 1012.5
20260508150014 15 232 4.8 14.5 0.00 0.00 0.00 62 1012.5
20260508145511 16 275 4.8 14.5 0.00 0.00 0.00 61 1012.6
20260508145010 16 270 4.8 17.7 0.00 0.00 0.00 64 1012.7
20260508144512 15 304 4.8 17.7 0.00 0.00 0.00 63 1012.7
20260508144011 15 296 4.8 12.9 0.00 0.00 0.00 67 1012.7
20260508143514 14 252 6.4 12.9 0.00 0.00 0.00 63 1012.8
20260508143011 14 250 6.4 17.7 0.00 0.00 0.00 66 1012.8
20260508142512 13 298 4.8 17.7 0.00 0.00 0.00 63 1012.9
20260508142242 13 260 4.8 9.7 0.00 0.00 0.00 65 1012.9
20260508141509 13 288 3.2 9.7 0.00 0.00 0.00 68 1013.0
20260508141010 12 261 4.8 11.3 0.00 0.00 0.00 69 1012.9
20260508140510 12 262 4.8 11.3 0.00 0.00 0.00 70 1013.0
20260508140239 12 296 4.8 11.3 0.00 0.00 0.00 68 1013.2
20260508135508 12 252 4.8 14.5 0.00 0.00 0.00 70 1013.2
20260508135010 11 262 6.4 19.3 0.00 0.00 0.00 70 1013.3
20260508134509 11 243 4.8 19.3 0.00 0.00 0.00 69 1013.2
20260508134010 11 267 4.8 12.9 0.00 0.00 0.00 70 1013.2
20260508133510 11 251 4.8 14.5 0.00 0.00 0.00 70 1013.1
20260508133009 11 192 3.2 14.5 0.00 0.00 0.00 73 1013.1
20260508132510 10 258 3.2 11.3 0.00 0.00 0.00 74 1013.0
20260508132236 10 217 4.8 12.9 0.00 0.00 0.00 74 1013.1
20260508131504 10 253 4.8 12.9 0.00 0.00 0.00 73 1013.0
20260508131005 10 241 4.8 12.9 0.00 0.00 0.00 73 1013.1
20260508130505 10 273 4.8 12.9 0.00 0.00 0.00 75 1013.0
20260508130006 10 252 3.2 11.3 0.00 0.00 0.00 76 1013.1
20260508125507 10 245 3.2 11.3 0.00 0.00 0.00 75 1013.0
20260508125002 10 230 3.2 11.3 0.00 0.00 0.00 76 1013.1
20260508124501 9 254 3.2 9.7 0.00 0.00 0.00 76 1013.0
20260508124003 9 219 3.2 9.7 0.00 0.00 0.00 77 1013.0
20260508123500 9 215 1.6 8.0 0.00 0.00 0.00 79 1013.0
20260508123001 8 232 3.2 8.0 0.00 0.00 0.00 79 1013.0
20260508122502 8 197 1.6 8.0 0.00 0.00 0.00 80 1013.0
20260508121957 8 207 1.6 8.0 0.00 0.00 0.00 81 1012.9
20260508121459 8 205 3.2 9.7 0.00 0.00 0.00 82 1013.0
20260508121229 8 227 1.6 9.7 0.00 0.00 0.00 82 1012.9
20260508120456 7 216 1.6 8.0 0.00 0.00 0.00 83 1012.9
20260508115958 7 215 1.6 8.0 0.00 0.00 0.00 85 1012.9
20260508115457 7 219 1.6 4.8 0.00 0.00 0.00 85 1012.9
20260508115226 7 217 0.0 4.8 0.00 0.00 0.00 86 1012.9
20260508114453 7 216 1.6 6.4 0.00 0.00 0.00 86 1012.9
20260508113952 6 213 1.6 6.4 0.00 0.00 0.00 86 1012.8
20260508113450 6 211 1.6 4.8 0.00 0.00 0.00 85 1012.7
20260508112948 6 211 1.6 4.8 0.00 0.00 0.00 84 1012.6
20260508112720 6 212 0.0 3.2 0.00 0.00 0.00 84 1012.6
20260508111943 6 211 0.0 4.8 0.00 0.00 0.00 84 1012.5
20260508111442 6 211 1.6 4.8 0.00 0.00 0.00 84 1012.6
20260508110939 6 205 1.6 6.4 0.00 0.00 0.00 85 1012.5
20260508110708 6 206 1.6 6.4 0.00 0.00 0.00 85 1012.5
20260508105938 6 223 1.6 3.2 0.00 0.00 0.00 85 1012.5
20260508105437 6 223 1.6 4.8 0.00 0.00 0.00 84 1012.4
20260508104935 6 222 1.6 4.8 0.00 0.00 0.00 84 1012.4
20260508104435 6 220 1.6 4.8 0.00 0.00 0.00 84 1012.4
20260508103930 6 219 1.6 4.8 0.00 0.00 0.00 84 1012.4
20260508103659 6 213 1.6 6.4 0.00 0.00 0.00 84 1012.3
20260508102931 5 212 1.6 6.4 0.00 0.00 0.00 83 1012.3
20260508102427 6 224 1.6 6.4 0.00 0.00 0.00 84 1012.3
20260508101924 6 227 1.6 6.4 0.00 0.00 0.00 83 1012.3
20260508101422 6 213 1.6 4.8 0.00 0.00 0.00 83 1012.2
20260508100922 5 204 1.6 4.8 0.00 0.00 0.00 83 1012.3
20260508100651 6 215 1.6 4.8 0.00 0.00 0.00 83 1012.3
20260508095921 6 213 1.6 6.4 0.00 0.00 0.00 83 1012.3
20260508095418 6 215 1.6 6.4 0.00 0.00 0.00 83 1012.2
20260508094923 5 251 1.6 9.7 0.00 0.00 0.00 83 1012.3
20260508094918 6 208 1.6 9.7 0.00 0.00 0.00 84 1012.2
20260508093915 5 251 3.2 11.3 0.00 0.00 0.00 83 1012.3
20260508093644 5 242 1.6 11.3 0.00 0.00 0.00 82 1012.3
20260508092913 5 263 1.6 6.4 0.00 0.00 0.00 81 1012.3
20260508092411 6 194 1.6 6.4 0.00 0.00 0.00 81 1012.3
20260508091908 6 203 1.6 6.4 0.00 0.00 0.00 81 1012.3
20260508091641 6 197 1.6 6.4 0.00 0.00 0.00 81 1012.3
20260508090910 6 206 1.6 6.4 0.00 0.00 0.00 82 1012.3
20260508090406 6 205 1.6 6.4 0.00 0.00 0.00 81 1012.3
20260508085905 6 210 1.6 4.8 0.00 0.00 0.00 81 1012.3
20260508085358 6 224 1.6 6.4 0.00 0.00 0.00 81 1012.4
20260508084859 6 221 1.6 6.4 0.00 0.00 0.00 81 1012.4
20260508084357 6 247 1.6 11.3 0.00 0.00 0.00 81 1012.3
20260508083855 6 253 1.6 11.3 0.00 0.00 0.00 81 1012.4
20260508083354 6 238 0.0 6.4 0.00 0.00 0.00 80 1012.5
20260508082852 6 246 0.0 3.2 0.00 0.00 0.00 80 1012.4
20260508082351 6 250 0.0 3.2 0.00 0.00 0.00 79 1012.4
20260508081851 6 235 0.0 1.6 0.00 0.00 0.00 79 1012.4
20260508081352 6 229 0.0 4.8 0.00 0.00 0.00 79 1012.4
20260508080848 6 217 0.0 4.8 0.00 0.00 0.00 79 1012.4
20260508080350 6 242 0.0 0.0 0.00 0.00 0.00 78 1012.4
20260508075844 6 242 0.0 0.0 0.00 0.00 0.00 78 1012.4
20260508075346 6 242 0.0 0.0 0.00 0.00 0.00 78 1012.4
20260508074846 6 243 0.0 0.0 0.00 0.00 0.00 78 1012.4
20260508074344 6 244 0.0 1.6 0.00 0.00 0.00 78 1012.4
20260508073842 6 245 0.0 3.2 0.00 0.00 0.00 78 1012.4
20260508073343 6 246 0.0 3.2 0.00 0.00 0.00 78 1012.5
20260508072837 6 246 0.0 3.2 0.00 0.00 0.00 77 1012.5
20260508072342 7 247 1.6 4.8 0.00 0.00 0.00 77 1012.6
20260508072336 6 246 0.0 3.2 0.00 0.00 0.00 77 1012.5
20260508071337 7 247 1.6 4.8 0.00 0.00 0.00 76 1012.6
20260508071105 7 247 1.6 4.8 0.00 0.00 0.00 76 1012.7
20260508070336 7 250 0.0 4.8 0.00 0.00 0.00 75 1012.6
20260508065830 7 251 0.0 8.0 0.00 0.00 0.00 74 1012.7
20260508065331 8 253 1.6 8.0 0.00 0.00 0.00 74 1012.7
20260508064832 8 220 1.6 6.4 0.00 0.00 0.00 74 1012.7
20260508064602 8 219 1.6 8.0 0.00 0.00 0.00 73 1012.7
20260508063828 8 204 1.6 8.0 0.00 0.00 0.00 72 1012.8
20260508063329 8 316 1.6 8.0 0.00 0.00 0.00 73 1012.9
20260508063055 8 355 3.2 9.7 0.00 0.00 0.00 71 1013.1
20260508062557 8 342 3.2 9.7 0.00 0.00 0.00 72 1013.0
20260508061825 8 302 3.2 9.7 0.00 0.00 0.00 73 1012.8
20260508061324 8 277 3.2 14.5 0.00 0.00 0.00 73 1012.6
20260508060823 8 209 3.2 14.5 0.00 0.00 0.00 72 1012.6
20260508060324 8 229 3.2 9.7 0.00 0.00 0.00 72 1012.5
20260508055817 8 236 3.2 9.7 0.00 0.00 0.00 73 1012.6
20260508055317 8 232 3.2 9.7 0.00 0.00 0.00 72 1012.7
20260508055047 8 215 3.2 9.7 0.00 0.00 0.00 73 1012.7
20260508054317 8 192 3.2 6.4 0.00 0.00 0.00 73 1012.7
20260508053816 8 233 1.6 6.4 0.00 0.00 0.00 73 1012.7
20260508053317 8 200 1.6 8.0 0.00 0.00 0.00 73 1012.7
20260508052812 8 194 3.2 8.0 0.00 0.00 0.00 73 1012.7
20260508052542 8 215 3.2 12.9 0.00 0.00 0.00 73 1012.6
20260508051812 8 205 4.8 12.9 0.00 0.00 0.00 73 1012.7
20260508051310 8 193 4.8 9.7 0.00 0.00 0.00 73 1012.7
20260508050809 8 204 3.2 9.7 0.00 0.00 0.00 74 1012.7
20260508050312 8 211 3.2 9.7 0.00 0.00 0.00 75 1012.7
20260508045807 8 200 3.2 9.7 0.00 0.00 0.00 76 1012.7
20260508045537 8 209 3.2 9.7 0.00 0.00 0.00 75 1012.8
20260508044804 8 215 3.2 9.7 0.00 0.00 0.00 76 1012.8
20260508044304 8 202 1.6 6.4 0.00 0.00 0.00 76 1012.8
20260508044035 8 201 1.6 4.8 0.00 0.00 0.00 78 1012.8
20260508043538 8 199 1.6 6.4 0.00 0.00 0.00 77 1012.8
20260508042759 8 198 1.6 6.4 0.00 0.00 0.00 77 1012.8
20260508042257 8 227 1.6 6.4 0.00 0.00 0.00 78 1012.8
20260508041756 8 234 0.0 3.2 0.00 0.00 0.00 77 1012.8
20260508041255 8 234 0.0 1.6 0.00 0.00 0.00 77 1012.9
20260508041027 8 234 0.0 1.6 0.00 0.00 0.00 77 1012.9
20260508040527 8 234 0.0 1.6 0.00 0.00 0.00 78 1012.9
20260508035750 8 234 0.0 4.8 0.00 0.00 0.00 78 1012.9
20260508035250 8 234 0.0 4.8 0.00 0.00 0.00 79 1012.9
20260508034752 8 234 0.0 1.6 0.00 0.00 0.00 79 1012.9
20260508034249 8 234 1.6 4.8 0.00 0.00 0.00 80 1012.9
20260508033750 8 235 1.6 4.8 0.00 0.00 0.00 80 1013.0
20260508033251 8 234 0.0 3.2 0.00 0.00 0.00 78 1013.0
20260508033021 8 234 0.0 4.8 0.00 0.00 0.00 77 1013.0
20260508032247 8 234 0.0 6.4 0.00 0.00 0.00 77 1012.8
20260508031747 8 234 0.0 6.4 0.00 0.00 0.00 78 1012.8
20260508031249 8 234 1.6 8.0 0.00 0.00 0.00 78 1012.8
20260508030749 8 217 3.2 8.0 0.00 0.00 0.00 78 1012.7
20260508030249 8 206 3.2 8.0 0.00 0.00 0.00 78 1012.7
20260508025748 8 199 3.2 6.4 0.00 0.00 0.00 76 1012.7
20260508025248 8 213 3.2 8.0 0.00 0.00 0.00 77 1012.7
20260508024747 8 195 3.2 8.0 0.00 0.00 0.00 78 1012.7
20260508024248 8 189 3.2 6.4 0.00 0.00 0.00 76 1012.7
20260508023749 8 205 3.2 6.4 0.00 0.00 0.00 75 1012.6
20260508023245 8 202 3.2 6.4 0.00 0.00 0.00 75 1012.7
20260508022745 8 207 3.2 4.8 0.00 0.00 0.00 72 1012.6
20260508022245 8 212 1.6 4.8 0.00 0.00 0.00 72 1012.7
20260508021744 8 238 1.6 4.8 0.00 0.00 0.00 69 1012.7
20260508021245 8 242 1.6 4.8 0.00 0.00 0.00 69 1012.7
20260508020745 8 242 1.6 4.8 0.00 0.00 0.00 70 1012.7
20260508020239 8 246 1.6 4.8 0.00 0.00 0.00 69 1012.8
20260508015741 8 246 3.2 4.8 0.00 0.00 0.00 67 1012.7
20260508015240 8 248 1.6 4.8 0.00 0.00 0.00 68 1012.7
20260508014740 8 269 0.0 3.2 0.00 0.00 0.00 68 1012.7
20260508014240 8 271 0.0 1.6 0.00 0.00 0.00 67 1012.7
20260508013745 8 271 0.0 0.0 0.00 0.00 0.00 66 1012.7
20260508013741 8 271 0.0 0.0 0.00 0.00 0.00 66 1012.8
20260508013006 8 271 0.0 0.0 0.00 0.00 0.00 66 1012.6
20260508012235 8 272 0.0 0.0 0.00 0.00 0.00 66 1012.5
20260508011735 9 272 0.0 0.0 0.00 0.00 0.00 66 1012.7
20260508011235 9 272 0.0 0.0 0.00 0.00 0.00 66 1012.8
20260508010736 9 272 0.0 0.0 0.00 0.00 0.00 66 1012.8
20260508010233 9 272 0.0 0.0 0.00 0.00 0.00 66 1012.7
20260508005731 9 272 0.0 0.0 0.00 0.00 0.00 65 1012.7
20260508005232 10 272 0.0 1.6 0.00 0.00 0.00 66 1012.7
20260508004731 10 272 0.0 1.6 0.00 0.00 0.00 66 1012.7
20260508004234 10 272 0.0 1.6 0.00 0.00 0.00 65 1012.7
20260508003733 10 272 0.0 1.6 0.00 0.00 0.00 63 1012.7
20260508003456 10 272 0.0 1.6 0.00 0.00 0.00 63 1012.6
20260508002727 10 272 0.0 4.8 0.00 0.00 0.00 62 1012.7
20260508002455 11 272 0.0 4.8 0.00 0.00 0.00 61 1012.5
20260508001721 11 273 1.6 4.8 0.00 0.00 0.00 61 1012.5
20260508001455 11 271 1.6 4.8 0.00 0.00 0.00 59 1012.6
20260508000723 11 273 0.0 3.2 0.00 0.00 0.00 59 1012.5
20260508000221 11 273 0.0 3.2 0.00 0.00 0.00 57 1012.5
20260507235953 11 273 0.0 4.8 0.00 0.00 0.00 57 1012.4
20260507235221 12 273 1.6 6.4 0.00 0.00 0.00 56 1012.4
20260507234717 12 273 3.2 8.0 0.00 0.00 0.00 54 1012.4
20260507234219 12 292 3.2 11.3 0.00 0.00 0.00 53 1012.4
20260507233717 12 265 4.8 11.3 0.00 0.00 0.00 53 1012.4
20260507233218 12 284 4.8 11.3 0.00 0.00 0.00 52 1012.4
20260507232715 12 259 3.2 11.3 0.00 0.00 0.00 52 1012.3
20260507232446 12 255 3.2 14.5 0.00 0.00 0.00 51 1012.3
20260507231709 13 325 4.8 14.5 0.00 0.00 0.00 51 1012.3